Flag for Singapore Weather past 2 weeks in Singapore, Singapore

Now
77 °F

Passing clouds.


Feels Like: 78 °F
Forecast: 78 / 89 °F
Wind: 1 mph from North

Location: Singapore / Paya Lebar

Current Time: Dec 19, 2014 at 10:07:05 PM

Latest Report: Dec 19, 2014 at 9:00 PM


Visibility: N/A

Pressure: 29.83 "Hg

Humidity: 89%

Dew point: 73 °F

Location of SingaporeLocation

Historic Weather in Singapore — Graph

°F

Singapore temperature yesterday

Maximum temperature yesterday: 91 °F (at 2:00 PM)
Minimum temperature yesterday: 79 °F (at 5:00 AM)
Average temperature yesterday: 84 °F

Past Weeks' High & Low Weather Summary

 TemperatureHumidityPressure
High95 °F (Dec 7, 2:00 PM)100% (Dec 19, 3:00 PM)29.92 "Hg (Dec 19, 3:00 PM)
Low77 °F (Dec 5, 5:00 AM)50% (Dec 7, 2:00 PM)29.74 "Hg (Dec 7, 2:00 PM)
Average83 °F77%29.83 "Hg
* Reported Dec 4 9:00 PM — Dec 19 9:00 PM, Singapore, Weather by CustomWeather, © 2014

Note: Actual official high and low records may vary slightly from our data, if they occured in-between our weather recording intervals... More about our weather records

Advertising

Singapore weather history for previous 24 hours

 ConditionsComfort  
Time TempWeatherWind HumidityBarometerVisibility
9:00 PM
Dec 19
77 °FPassing clouds.1 mph89%29.83 "HgN/A
8:00 PM77 °FPassing clouds.6 mph94%29.80 "HgN/A
7:00 PM77 °FLight rain. Partly sunny.3 mph94%29.80 "Hg5 mi
6:00 PM77 °FLight rain. Partly sunny.8 mph94%29.80 "Hg5 mi
5:00 PM77 °FLight rain. Overcast.7 mph94%29.80 "Hg5 mi
4:00 PM77 °FLight rain. Overcast.6 mph94%29.83 "Hg4 mi
3:00 PM77 °FRain. Overcast.6 mph100%29.86 "Hg3 mi
2:00 PM77 °FRain. Overcast.5 mph94%29.89 "Hg3 mi
1:00 PM77 °FRain. Overcast.5 mph94%29.89 "Hg3 mi
12:00 PM77 °FLight rain. Overcast.8 mph94%29.92 "Hg3 mi
11:00 AM79 °FLight rain. Low clouds.8 mph89%29.92 "Hg3 mi
10:00 AM79 °FLight rain. Partly sunny.5 mph89%29.92 "Hg5 mi
9:00 AM79 °FPartly sunny.6 mph89%29.89 "Hg6 mi
8:00 AM79 °FScattered showers. Broken clouds.9 mph89%29.86 "Hg5 mi
7:00 AM77 °FLots of rain. Partly sunny.10 mph94%29.83 "Hg2 mi
6:00 AM81 °FPassing clouds.7 mph84%29.80 "HgN/A
5:00 AM81 °FPassing clouds.9 mph84%29.80 "HgN/A
11:00 PM
Dec 18
82 °FPassing clouds.14 mph84%29.86 "HgN/A
10:00 PM82 °FPassing clouds.14 mph84%29.83 "HgN/A
Weather by CustomWeather, © 2014

See weather overviewHow to use our weather pages